Theta_e
321 329 328 325 323 322 321 321 322 322 323 323 322 324 321 321 325 326 325 322 321 323 322 324 329 325 323 324 321 320 322 322 321 321 321 321 321 321 321 321 320 319 318 318 318 317 317 317 316 316 317 317 316 316 313 312 314 314 314 313 313 313 312 312 312 311 311 310 310 312 316 319 322 323 324 325 326 326 326 328 329 330 331 331 331 332
326 330 326 324 322 320 321 321 320 319 320 320 320 322 321 321 324 323 322 322 320 323 321 323 329 325 324 325 321 321 321 320 321 321 321 321 321 321 321 320 320 319 319 319 318 318 318 318 317 317 317 317 317 316 313 313 314 314 313 313 313 312 312 312 312 311 311 311 310 312 316 319 321 322 323 323 324 325 325 326 327 328 330 330 330 331
330 327 325 323 320 319 320 322 321 320 321 322 322 326 322 320 324 323 322 322 321 324 323 322 327 326 325 325 321 320 321 321 322 322 322 322 321 321 321 320 320 320 320 319 319 319 319 318 317 317 317 317 317 316 313 313 314 314 313 313 312 312 312 312 312 311 311 309 310 313 316 318 319 320 321 322 322 323 324 325 325 327 328 329 329 329
327 324 325 321 317 319 320 320 324 324 321 321 324 325 321 318 321 321 320 319 319 323 324 324 326 326 326 327 325 322 322 322 322 322 322 322 321 321 321 321 320 320 320 320 319 319 318 317 317 317 317 317 317 316 313 313 314 313 313 313 312 312 312 311 311 311 310 309 309 312 315 317 318 319 320 321 322 322 323 323 324 325 326 327 328 328
324 322 321 319 318 320 319 319 325 327 321 319 320 319 318 318 318 317 317 319 321 323 326 325 323 325 326 327 327 325 323 323 322 322 322 322 321 321 320 320 320 320 320 320 320 320 318 317 317 317 317 317 317 316 313 313 314 313 313 313 312 312 311 311 311 310 309 309 310 311 314 315 317 318 319 319 320 321 322 322 323 324 325 326 326 327
321 318 318 318 319 320 320 321 321 323 323 321 320 318 317 317 317 317 317 322 325 324 326 323 320 324 325 327 327 325 324 324 322 322 322 322 321 321 321 320 321 321 321 321 320 319 318 318 317 317 317 317 316 315 313 313 314 313 313 312 312 311 311 311 310 310 309 310 311 311 313 314 315 316 317 318 319 319 320 322 323 324 324 325 325 326
321 317 318 318 319 322 322 321 318 321 325 322 319 319 319 318 318 318 317 321 323 321 323 321 322 324 322 324 327 324 325 326 323 322 321 322 322 321 321 321 321 321 321 321 320 319 319 318 317 317 317 316 316 315 313 313 313 313 313 312 311 311 311 310 309 309 309 310 311 312 313 314 314 315 316 318 318 318 319 321 322 323 324 324 325 326
322 319 320 319 321 322 322 321 318 321 324 321 320 319 319 319 318 318 317 317 320 321 323 324 327 327 324 326 327 324 326 327 325 324 321 321 321 321 321 321 322 322 321 321 320 319 319 317 317 317 317 316 315 315 314 313 313 312 312 311 311 310 310 310 309 308 310 311 311 311 313 313 313 314 316 316 317 318 319 320 322 323 323 324 325 326
320 320 319 321 323 321 320 319 317 319 321 322 322 319 318 318 317 319 316 316 321 322 324 329 329 327 324 326 326 324 327 328 326 326 322 321 321 321 320 320 322 322 321 321 320 318 318 317 317 317 316 316 315 314 314 313 313 312 312 311 311 310 309 309 308 308 310 310 311 311 312 312 312 313 315 316 316 317 318 319 322 322 322 324 326 328
319 318 317 322 324 320 319 319 317 318 318 319 320 319 320 319 318 318 314 319 328 324 324 330 330 330 326 324 326 326 328 329 327 325 323 321 321 321 321 320 322 323 321 321 320 318 317 317 317 317 316 316 315 314 313 312 312 312 311 311 310 310 309 309 309 309 310 310 311 311 311 312 312 312 313 314 315 316 317 319 321 322 323 324 326 327
319 319 317 320 321 318 318 319 317 316 316 318 322 324 325 324 324 324 322 328 331 325 330 332 327 332 329 324 327 330 332 332 326 326 324 322 322 322 322 321 322 322 321 321 321 319 318 317 317 317 316 316 315 314 313 312 312 311 311 310 310 309 309 310 311 311 310 310 310 311 311 311 311 312 312 313 314 315 316 318 320 322 323 324 324 326
327 326 319 319 319 317 320 320 317 315 314 318 323 324 323 327 330 331 334 337 329 325 334 332 324 328 330 327 328 330 333 331 325 327 326 322 322 322 322 321 321 322 321 321 320 318 317 317 317 316 316 315 314 313 312 312 311 311 310 309 309 309 309 310 311 310 310 309 310 310 311 311 311 312 312 312 313 314 315 317 319 321 322 323 323 324
331 327 318 319 319 318 323 325 322 319 318 318 321 325 327 330 329 329 333 330 327 329 328 323 323 328 328 327 327 328 329 326 323 325 324 322 322 322 321 321 321 321 321 321 320 319 317 317 316 316 316 315 314 313 312 312 311 310 310 309 309 309 309 310 310 310 310 309 309 310 311 311 311 311 312 312 312 313 314 315 317 319 321 322 322 323
331 328 322 324 321 318 321 324 322 320 320 317 318 324 328 329 325 325 327 323 325 332 326 319 321 325 326 325 325 326 324 322 322 322 323 323 323 322 321 321 320 320 321 321 320 319 317 317 316 316 315 315 314 313 312 312 311 310 309 309 309 309 309 310 310 309 309 309 309 309 310 311 311 311 311 311 312 313 313 314 316 318 319 320 321 321
327 328 326 324 321 319 318 320 320 320 322 319 317 319 322 326 324 322 325 323 324 329 327 322 321 323 327 325 322 322 321 321 323 323 323 323 322 322 322 321 320 320 321 320 320 319 317 317 317 316 315 314 314 313 312 312 311 309 309 309 309 309 309 310 309 309 308 308 309 310 310 310 310 311 311 311 311 312 313 313 314 317 318 319 319 320
324 327 327 321 317 318 316 316 318 321 326 324 320 322 322 324 324 323 325 323 322 326 325 322 322 323 324 322 320 321 321 322 322 323 323 323 322 323 322 321 321 321 320 320 319 319 318 317 316 316 315 315 313 312 312 312 310 309 309 309 309 309 309 309 309 308 308 308 309 310 309 309 310 311 311 311 311 312 312 312 313 315 317 318 318 319
323 326 328 320 317 318 316 316 317 318 327 328 323 323 321 319 319 321 324 326 324 321 320 322 323 322 321 322 321 321 322 322 322 322 322 322 323 322 322 322 321 321 320 319 318 319 318 317 316 315 315 314 312 311 311 311 310 309 309 309 309 309 309 308 308 308 308 308 308 309 309 309 310 310 311 311 312 312 312 312 313 314 316 317 318 318
323 326 326 320 318 318 314 316 318 317 323 328 324 322 320 321 324 322 321 329 329 320 320 324 323 321 323 323 322 322 324 323 322 321 321 321 322 321 322 322 321 321 320 319 318 318 317 317 316 315 314 313 312 311 311 311 310 309 309 309 309 309 308 308 308 309 308 308 308 309 309 309 310 311 311 311 312 312 313 313 312 313 314 316 317 317
327 328 328 323 319 320 321 323 324 321 320 320 319 320 321 321 327 328 321 323 325 319 320 324 322 322 324 324 323 325 327 326 324 322 321 320 321 321 321 321 320 321 320 319 319 317 317 316 315 315 314 312 311 311 311 310 310 309 309 309 309 309 308 307 308 309 308 308 308 309 310 309 310 312 312 312 312 313 313 313 313 313 314 314 316 316
327 327 328 327 320 322 330 329 326 327 324 322 321 324 328 325 323 324 322 320 321 321 320 321 322 325 327 328 326 325 325 325 324 324 322 320 320 321 320 320 319 319 319 319 318 317 317 316 315 314 313 312 311 311 311 310 309 309 309 309 308 308 308 307 308 308 308 308 308 309 310 310 310 311 312 312 313 313 314 315 315 314 314 314 315 315
329 326 324 327 325 325 330 326 323 325 323 323 326 326 328 328 324 322 322 321 323 325 323 321 323 328 332 332 327 324 325 323 322 323 321 318 320 321 320 319 319 318 318 318 317 317 316 315 314 313 312 311 311 311 310 309 309 309 309 309 308 308 308 307 308 308 308 308 308 308 309 310 310 311 311 313 314 315 316 316 316 316 315 315 315 315
328 326 324 327 329 327 328 327 325 324 322 322 324 322 323 327 327 325 324 325 326 324 320 320 323 329 336 333 325 323 321 319 320 320 319 319 319 319 319 319 318 317 318 317 317 316 315 315 314 313 312 311 311 311 310 309 309 309 309 309 308 308 308 308 308 308 308 309 308 308 308 309 310 310 311 313 314 315 317 317 316 317 317 317 316 316
324 330 330 327 328 327 327 326 321 321 327 327 325 325 326 328 329 327 325 326 325 322 322 322 323 331 337 328 322 319 315 315 318 318 318 319 319 318 319 318 316 316 317 316 316 315 314 314 313 312 312 311 311 310 310 310 309 309 309 308 308 308 308 307 308 308 308 309 308 308 308 309 310 310 312 314 315 316 317 317 317 317 317 317 317 317
324 330 329 329 334 334 332 330 324 324 331 330 326 328 328 326 329 331 329 325 321 322 326 324 323 333 333 319 315 316 314 316 318 318 318 318 317 318 318 317 316 316 316 315 315 315 314 314 313 312 312 311 311 311 310 310 310 309 308 308 308 308 308 307 308 309 309 309 308 307 308 309 310 311 313 315 315 316 316 316 317 317 317 317 316 316
322 325 328 331 334 334 333 333 331 330 331 327 326 328 328 324 324 328 328 325 321 320 322 320 322 332 330 318 316 317 315 316 315 316 317 317 316 317 317 316 316 315 315 315 315 315 314 313 313 313 312 311 311 311 311 310 309 309 308 308 308 308 308 308 308 309 309 309 309 308 307 309 311 312 314 315 315 315 315 315 316 316 316 316 315 315
322 326 332 332 328 327 329 330 330 330 328 325 326 328 327 323 321 324 324 323 324 322 320 320 325 331 328 323 322 320 319 319 316 314 315 316 316 316 316 316 315 315 316 315 315 315 314 313 313 313 312 312 312 312 311 310 309 309 308 308 308 308 307 308 308 308 309 309 309 308 307 309 312 314 314 314 314 315 314 314 315 315 315 315 315 315
326 329 332 333 332 329 329 329 330 328 326 326 326 328 327 322 321 325 323 323 326 324 322 323 323 325 327 326 325 324 325 323 317 314 315 315 316 316 315 315 315 316 316 315 315 314 314 314 313 313 312 312 312 312 311 310 309 309 308 308 308 307 307 308 308 308 309 309 308 308 307 309 312 314 314 313 314 314 314 314 314 314 314 314 314 314
334 330 326 329 331 328 328 331 330 325 326 329 327 327 329 325 321 322 324 326 325 321 325 328 323 321 325 324 322 323 325 323 316 314 315 314 315 315 315 316 315 315 315 315 315 314 314 314 313 313 313 312 312 311 310 310 309 309 308 308 308 307 307 308 307 308 309 309 308 308 307 309 312 313 313 313 313 313 313 313 313 312 313 312 313 313
335 331 323 325 328 327 328 331 330 326 326 328 327 326 329 327 322 321 326 329 324 320 326 327 322 322 323 322 321 320 320 320 316 315 315 315 315 315 315 315 315 315 315 314 315 314 314 314 313 313 313 312 312 311 310 309 309 308 308 308 307 307 307 307 307 308 309 309 308 307 307 309 311 312 312 312 313 313 312 312 312 311 311 311 312 312
329 331 326 326 328 330 330 329 328 329 327 326 327 327 328 328 325 322 324 326 323 321 325 324 322 324 322 319 319 317 315 317 316 316 316 315 315 315 315 315 315 315 315 314 314 314 314 314 314 313 313 312 311 310 309 309 308 308 308 307 307 307 307 307 307 308 309 308 307 307 307 308 310 312 312 312 312 312 311 311 311 311 311 311 311 311
324 328 329 329 328 330 333 329 328 330 328 326 329 329 327 326 324 321 321 323 320 321 323 319 319 323 320 315 315 315 315 317 316 316 316 315 315 315 314 315 315 314 314 314 314 314 314 314 313 313 313 312 310 310 309 309 308 308 308 307 307 307 308 308 308 308 309 308 307 307 307 308 310 311 311 312 312 311 311 311 310 310 311 311 311 311
325 325 329 329 326 328 332 328 327 329 326 325 328 329 326 325 325 323 322 322 321 322 322 316 317 324 320 312 314 316 316 316 316 316 316 316 316 315 314 314 314 314 314 314 314 314 314 313 313 313 312 311 310 309 309 308 308 308 307 307 307 308 308 308 308 308 308 307 307 307 308 309 309 310 311 311 311 311 311 310 310 310 311 311 310 310
329 328 328 327 325 330 331 327 327 329 327 328 331 331 328 327 325 321 320 321 321 322 322 319 322 325 316 311 318 322 317 316 316 316 317 317 316 315 315 315 314 314 314 314 314 314 313 313 313 312 311 310 309 309 308 308 308 307 307 307 307 308 308 308 308 308 307 306 306 307 308 309 309 310 310 310 310 311 310 310 310 310 311 311 310 310
328 329 330 327 326 331 332 328 327 327 328 332 334 330 327 327 326 323 323 327 323 320 321 321 322 322 316 314 320 322 319 318 317 316 317 317 316 316 315 315 315 314 314 314 314 313 313 313 312 311 310 310 309 309 308 308 308 307 307 307 307 308 307 308 308 307 307 306 306 307 308 308 309 310 310 309 310 310 310 310 310 311 312 311 310 310
328 328 329 325 324 330 333 330 328 328 330 333 332 329 326 326 326 324 326 329 326 322 321 321 320 320 317 315 315 316 318 319 317 317 318 317 317 316 315 315 315 314 314 313 313 313 313 313 311 310 310 309 309 309 308 308 308 307 306 307 307 307 307 307 307 307 306 307 306 306 307 307 308 309 309 309 310 310 309 309 309 310 311 311 310 310
329 329 328 324 323 328 330 326 325 328 330 330 330 326 322 321 322 321 322 328 328 324 322 323 321 317 313 314 316 316 317 318 317 317 317 316 317 317 316 315 314 313 314 313 313 313 312 312 311 310 310 310 309 309 308 308 307 306 306 307 307 307 307 307 307 306 306 307 307 306 306 307 308 308 309 309 309 309 309 309 309 309 311 311 310 310
326 329 328 323 321 325 327 326 327 327 326 329 329 323 318 320 322 321 323 328 326 319 318 322 323 317 314 316 317 316 316 318 319 319 317 316 317 316 316 315 314 314 314 313 312 312 312 311 311 310 310 310 309 308 308 307 306 306 306 307 306 306 307 307 306 306 306 307 306 306 305 306 307 308 308 308 308 308 308 308 308 309 310 310 310 309
321 325 328 326 322 323 324 325 327 325 326 331 331 322 319 319 320 320 324 326 322 316 315 319 320 317 316 316 316 316 317 320 324 322 317 316 316 315 316 316 315 315 315 313 313 312 312 311 311 311 310 310 308 308 307 306 305 305 306 306 306 307 306 306 306 306 307 307 306 305 305 306 307 308 307 307 307 307 307 308 309 310 310 309 309 309
322 322 329 330 326 323 323 324 325 325 327 331 328 321 318 318 318 320 324 328 324 317 316 318 317 316 317 317 317 318 318 322 327 324 316 315 316 316 316 316 315 315 315 314 314 313 312 312 311 311 310 309 308 308 307 306 305 306 306 306 306 306 306 306 306 306 306 306 305 306 306 306 306 307 307 307 307 307 307 308 309 310 309 309 309 309
324 323 326 329 326 325 325 325 325 325 324 324 324 321 318 318 319 322 326 330 325 317 317 318 317 317 318 317 317 318 319 322 325 321 315 315 317 316 316 316 315 315 315 314 314 313 312 312 311 311 310 309 308 308 307 306 305 306 307 306 306 306 305 305 306 305 305 306 305 305 306 306 307 307 307 307 307 307 307 308 308 309 309 309 309 308
324 322 322 325 328 326 323 323 325 326 324 322 322 320 317 318 322 324 327 328 321 317 318 318 316 317 317 317 318 318 318 319 319 318 316 317 316 316 316 315 314 315 315 314 313 313 312 312 311 311 310 309 308 308 307 306 305 306 306 306 306 306 305 305 306 305 305 305 305 305 305 306 306 306 306 307 307 306 306 307 308 308 308 309 309 309
326 322 319 322 326 325 324 324 324 324 324 321 320 318 316 320 326 327 325 321 317 317 318 317 316 317 317 317 318 318 318 318 317 317 317 317 317 317 316 315 315 315 314 314 313 313 312 312 311 310 310 309 308 308 307 306 306 306 306 306 306 305 305 305 305 305 304 304 304 304 305 305 306 306 306 306 307 306 305 306 307 308 308 308 309 309
325 323 322 324 325 322 322 322 321 323 323 319 318 319 319 323 327 323 319 317 318 319 318 317 317 317 317 318 318 317 318 318 317 317 317 317 317 316 315 315 315 315 314 314 313 313 312 312 311 310 310 309 308 308 307 306 306 306 306 306 305 305 305 304 305 305 304 303 303 304 304 304 305 305 306 306 306 306 305 306 307 307 307 308 308 309
320 320 325 327 324 323 324 325 326 328 325 318 318 321 321 322 321 318 317 318 319 319 318 317 318 317 317 318 318 317 317 317 317 317 317 317 317 316 316 316 315 315 315 314 314 313 312 312 311 310 310 310 309 308 308 306 305 305 305 306 305 305 305 304 305 305 304 303 304 304 304 304 304 305 305 305 306 306 304 305 306 307 307 308 308 309
320 319 322 323 322 324 328 331 328 322 319 318 318 319 319 318 318 317 318 318 318 318 318 317 317 318 318 319 318 317 317 317 317 317 317 317 317 316 316 316 315 315 315 314 314 314 312 312 312 311 310 310 309 308 308 307 306 305 306 306 305 304 305 305 305 304 303 303 304 304 303 305 304 303 301 301 301 302 302 303 306 307 306 307 308 308
318 317 318 320 320 319 320 322 320 316 317 318 318 318 319 318 319 318 318 318 318 318 318 317 318 319 318 318 318 318 317 317 317 317 317 317 317 317 316 316 315 315 315 315 314 314 313 312 312 311 310 310 309 309 308 307 306 306 306 306 305 305 305 305 305 304 303 304 304 304 304 304 303 302 300 298 296 296 297 300 304 306 306 306 307 307
316 314 317 319 319 318 320 321 317 314 316 316 315 317 317 317 319 319 317 318 318 318 318 317 317 318 317 317 317 317 317 317 317 317 317 317 317 317 316 316 316 316 316 315 315 314 314 313 312 311 310 309 309 309 308 307 307 306 306 306 306 305 305 305 305 305 304 304 304 304 303 303 303 303 303 302 298 295 294 297 302 305 307 306 306 306
315 314 318 320 319 319 321 321 316 313 315 315 315 316 315 315 317 317 316 317 317 317 317 317 316 317 317 317 317 317 318 317 316 316 317 317 317 317 317 316 316 316 316 316 315 315 314 313 313 312 310 309 309 309 308 308 307 307 307 306 306 306 305 305 305 304 304 304 304 304 303 303 303 303 304 304 302 298 294 295 299 302 305 305 305 305
313 314 317 318 321 321 317 315 314 314 315 314 314 314 314 314 315 315 315 316 315 316 316 316 316 316 315 315 316 317 318 317 316 316 316 316 317 317 317 317 316 316 316 316 315 315 314 313 313 312 311 310 309 309 308 308 307 307 307 307 307 306 304 304 304 303 304 305 305 305 305 304 304 304 304 304 304 301 296 294 296 297 299 300 301 301
313 318 316 315 321 324 319 315 315 316 317 317 315 314 314 314 314 314 315 315 315 315 316 315 315 315 314 314 315 316 317 317 317 316 316 316 316 317 317 317 317 316 316 316 316 315 314 313 313 313 312 311 310 309 309 308 308 308 308 307 308 306 304 304 304 303 304 305 305 305 305 305 305 305 304 304 304 303 299 295 295 295 295 296 297 297
313 317 316 315 318 320 317 315 314 315 316 316 314 313 314 314 313 314 315 315 315 315 315 315 315 315 315 315 315 315 315 316 316 316 317 316 316 317 317 317 317 316 316 316 316 315 314 314 313 313 312 311 310 309 309 309 308 308 308 308 307 306 304 304 304 303 305 306 306 305 305 305 305 305 305 304 304 304 301 296 294 295 295 295 295 295
Wind_Speed
3 4 3 2 4 4 1 3 4 3 4 5 2 2 2 2 4 4 2 3 3 6 2 6 9 7 9 4 7 23 28 25 26 25 26 27 27 28 27 27 26 22 20 18 14 11 9 7 5 2 1 1 3 7 12 13 12 15 18 19 18 18 19 18 19 21 20 18 11 4 2 2 2 2 4 4 4 6 8 9 9 9 9 11 12 14
4 5 2 6 6 3 3 5 6 3 3 6 4 2 2 1 3 4 2 3 2 5 1 6 9 8 8 4 7 22 22 20 27 27 25 28 27 27 27 27 26 24 23 21 16 13 11 10 7 5 5 2 2 7 10 11 11 14 16 18 19 20 20 19 20 21 21 20 14 7 5 3 2 1 2 3 4 5 7 9 10 10 10 10 11 13
5 1 5 5 5 5 6 7 7 7 6 6 4 4 2 3 1 4 3 1 3 3 3 4 8 5 5 5 7 16 18 19 28 31 31 32 30 29 30 30 29 28 26 22 18 16 15 12 10 9 7 3 2 6 9 10 10 12 14 16 19 20 20 19 20 22 23 20 12 7 6 4 2 2 2 3 4 5 7 9 11 11 11 11 11 12
3 3 7 4 8 7 7 7 7 7 6 5 5 5 2 4 2 2 5 4 3 1 3 3 7 4 4 6 4 8 16 18 21 26 30 33 34 33 33 32 31 31 28 21 19 20 18 14 12 11 7 2 1 5 9 9 9 11 13 16 18 19 19 19 21 24 24 18 10 5 5 5 3 1 2 3 4 6 8 10 12 12 13 14 14 13
2 4 5 6 8 7 6 7 6 6 5 5 5 6 2 3 3 2 3 5 5 3 2 7 7 2 2 6 4 5 11 15 16 21 23 26 32 32 32 31 29 27 25 22 22 23 19 16 13 10 5 2 1 5 9 9 9 11 13 16 18 19 20 21 23 26 23 16 9 5 5 7 6 5 6 6 6 7 8 10 12 12 14 15 16 15
1 4 8 8 7 8 6 6 5 4 4 4 3 3 3 2 3 3 4 5 5 5 2 5 5 2 2 4 4 3 6 8 8 14 18 22 27 29 31 29 24 22 20 20 23 23 19 15 13 9 6 3 1 6 8 8 8 11 14 16 18 19 20 22 26 26 20 14 10 8 6 5 5 5 5 5 6 6 7 8 10 11 12 14 15 15
3 8 10 8 7 8 6 5 4 4 6 3 3 1 3 5 4 4 4 5 2 2 4 2 5 3 2 3 2 2 4 5 4 7 13 20 23 27 28 23 20 20 19 20 22 22 18 14 12 10 6 2 2 5 6 7 9 12 15 17 17 19 20 23 26 23 16 13 11 10 8 7 7 6 5 5 6 6 7 9 10 10 12 13 15 15
2 7 8 8 8 6 6 5 4 2 6 0 6 2 3 3 3 4 3 3 2 3 4 3 4 4 1 2 1 3 5 4 3 5 9 15 20 22 22 19 20 22 20 21 22 20 17 14 12 9 5 1 3 4 5 7 10 14 16 17 17 18 19 22 24 20 14 13 12 9 8 7 7 7 5 5 6 6 6 8 10 10 12 14 15 15
1 4 4 6 7 4 2 2 4 3 4 4 6 4 2 1 3 3 3 1 0 2 5 6 3 5 1 3 2 3 4 4 7 6 7 14 18 19 19 19 21 22 20 19 19 18 17 14 11 7 4 2 2 4 6 8 11 14 15 15 15 17 19 22 21 18 16 14 10 9 8 7 6 6 5 4 6 7 7 7 9 9 11 12 13 11
1 2 4 6 5 1 3 4 2 6 2 5 2 2 3 2 1 1 0 1 2 4 3 7 1 5 2 3 3 2 2 5 7 4 7 14 18 19 20 21 22 22 20 17 16 17 16 13 10 6 4 2 1 4 6 9 11 13 13 13 15 17 20 19 18 19 20 17 11 9 9 8 7 6 6 5 7 7 7 7 8 8 9 10 12 9
2 3 4 4 3 1 1 4 7 8 4 2 5 5 5 5 4 2 1 2 4 2 5 6 1 4 1 3 4 4 4 6 6 4 5 10 15 18 20 22 23 22 21 17 14 16 16 11 8 6 4 2 2 4 7 10 12 12 12 14 16 18 18 16 16 18 21 20 15 10 9 10 8 7 7 6 7 7 8 8 9 8 7 9 13 11
6 4 3 3 5 5 4 5 7 9 8 6 5 4 4 5 5 5 4 4 4 2 6 4 1 4 3 4 5 5 5 5 7 6 7 10 14 18 20 22 22 22 21 18 15 16 15 12 10 8 5 2 2 4 7 10 11 11 12 14 15 17 16 14 15 17 19 21 18 12 10 10 9 9 8 6 6 8 8 8 9 8 7 8 11 12
5 3 2 2 5 7 6 4 6 8 8 7 4 4 5 3 4 4 3 3 1 4 5 2 1 3 1 4 4 5 5 5 10 11 13 16 17 19 21 22 22 21 21 19 17 16 15 13 11 9 5 2 2 4 7 9 9 10 11 13 14 16 16 14 14 16 19 20 19 14 10 10 10 10 9 8 7 7 8 9 9 9 8 7 9 11
4 5 5 3 5 6 6 4 2 4 4 5 3 3 3 2 3 2 3 2 1 5 5 1 2 2 1 4 2 5 3 7 13 14 17 21 21 20 21 21 21 22 21 20 18 17 15 13 12 8 5 3 3 5 7 7 8 9 10 11 14 14 13 13 14 17 19 20 18 14 10 9 10 10 10 9 8 6 8 9 9 8 8 8 8 10
2 3 4 2 2 3 3 3 4 2 1 1 1 3 3 2 2 1 2 1 2 4 5 3 2 2 2 3 1 4 6 8 11 12 15 19 20 19 19 20 20 20 21 20 18 17 15 14 12 9 6 4 4 5 6 6 6 7 8 10 13 14 13 13 15 18 20 19 16 13 10 9 9 10 9 8 8 7 7 9 8 7 7 9 9 9
3 3 6 3 1 3 3 1 2 4 2 2 1 5 2 2 4 1 2 4 3 1 3 3 1 1 2 1 3 5 8 8 9 12 15 17 17 17 18 19 19 18 20 21 19 17 16 15 14 10 7 5 3 4 5 5 4 5 8 11 13 14 14 15 17 19 20 19 15 12 11 9 9 9 9 8 7 6 7 8 9 7 6 7 8 8
3 3 6 4 5 4 4 2 3 5 1 2 4 2 4 3 6 1 2 1 3 3 2 1 1 1 3 3 4 3 5 5 6 10 15 17 18 18 19 19 18 17 19 20 19 18 19 18 15 10 7 4 2 3 4 3 3 6 8 10 12 13 14 16 17 18 20 20 14 11 11 10 10 9 9 8 7 6 6 6 8 8 6 6 7 8
2 2 6 4 5 5 4 6 6 6 4 3 2 3 3 2 3 3 1 3 4 2 2 1 2 1 1 0 3 2 1 2 2 5 11 15 17 19 20 19 18 17 18 19 19 19 21 19 14 10 7 3 2 3 3 2 4 6 7 9 11 12 14 16 16 16 20 20 14 11 11 10 9 9 8 7 7 6 6 4 5 7 8 7 7 8
3 1 6 4 4 5 6 8 6 9 7 5 1 2 2 3 2 2 2 1 2 1 1 2 2 1 2 3 3 3 5 6 5 4 6 11 16 20 19 18 17 17 18 20 20 22 21 17 13 10 5 2 1 2 2 3 5 6 7 9 10 12 15 15 15 15 19 20 15 11 11 9 8 8 7 6 6 6 6 5 3 4 7 9 10 9
3 3 3 6 4 3 5 6 3 7 7 5 3 3 2 3 2 0 1 1 1 0 1 0 3 2 4 4 5 7 8 7 6 5 7 13 19 21 20 18 18 18 20 22 23 23 20 16 13 9 4 3 3 3 3 4 4 4 6 8 10 12 14 15 14 15 17 19 15 11 10 9 7 6 6 8 7 6 6 5 4 2 3 5 7 8
3 3 1 6 6 4 2 1 0 3 3 3 5 4 3 2 1 1 1 1 2 2 2 1 2 4 5 4 5 7 7 8 10 9 10 17 22 22 21 20 19 19 21 23 25 23 19 17 13 7 4 5 5 4 5 4 2 4 6 7 9 11 13 14 14 14 16 18 17 14 11 9 7 5 6 9 8 6 7 5 4 4 3 3 4 4
1 2 1 3 5 3 3 5 3 4 4 3 2 1 1 1 3 3 2 3 1 2 2 2 2 5 5 3 4 5 5 9 16 16 14 20 23 22 22 22 20 22 24 25 24 22 20 17 11 6 6 7 7 6 4 2 2 4 5 7 9 10 12 13 13 13 15 16 17 15 11 9 8 4 6 9 7 5 6 4 3 4 4 4 4 3
2 3 3 2 2 3 6 5 3 4 3 4 2 2 4 3 4 5 2 3 2 2 1 2 1 5 5 3 4 6 5 9 19 21 19 21 21 18 21 24 23 23 24 24 23 22 19 15 9 8 9 9 8 6 3 2 3 4 5 7 8 10 12 12 11 12 14 15 17 16 11 8 6 4 6 8 5 3 5 4 3 4 3 4 5 5
1 3 3 2 4 4 6 6 5 4 4 5 2 1 4 2 3 5 4 2 0 3 2 2 1 4 5 6 6 4 4 4 13 17 16 16 14 14 20 25 24 23 24 24 22 19 16 12 10 10 11 10 9 5 4 4 4 4 5 6 8 10 11 11 11 11 13 15 17 16 11 6 4 4 5 5 4 5 5 4 4 5 3 4 5 6
1 1 3 2 4 6 7 7 6 6 4 2 3 3 2 3 4 3 1 3 1 2 2 3 2 5 5 7 8 8 9 7 7 9 10 12 12 14 22 26 24 23 24 22 20 18 15 13 12 12 13 12 9 6 6 5 5 5 5 7 8 9 10 10 11 10 12 13 14 15 11 6 4 4 3 3 5 4 3 2 5 6 5 5 6 7
2 2 3 4 2 1 2 3 3 3 3 2 2 4 3 2 2 1 1 3 0 3 2 3 4 5 7 7 7 7 8 7 4 6 8 11 14 19 25 27 25 23 22 20 19 18 16 15 15 15 14 13 10 9 8 7 7 6 6 7 6 8 9 10 10 10 11 12 13 14 10 5 5 3 2 4 5 5 5 5 7 8 7 7 8 8
3 2 2 5 5 4 4 6 5 3 0 3 4 5 3 1 2 3 3 2 3 1 2 4 5 3 8 8 7 7 7 5 2 4 8 13 18 22 25 26 24 23 21 20 19 19 18 18 17 17 15 14 11 10 9 9 9 7 7 6 6 8 10 9 9 9 10 11 13 14 8 4 4 4 4 5 5 6 7 7 7 7 7 9 9 8
4 2 0 4 5 5 6 7 5 4 3 5 4 5 5 1 3 5 3 4 5 3 4 6 4 1 7 8 7 6 5 5 2 5 10 14 19 22 22 23 24 23 21 20 19 20 21 20 20 18 16 13 11 10 10 9 8 6 6 6 7 10 10 8 8 9 10 11 12 13 7 2 3 4 4 4 5 5 6 7 8 9 10 11 11 11
5 0 3 2 1 4 4 5 4 4 3 4 5 6 6 3 4 6 6 6 7 4 6 7 4 3 8 8 8 8 8 9 7 9 11 13 16 20 22 23 24 23 21 20 20 21 23 23 22 19 15 13 11 10 10 8 6 5 5 7 9 10 8 7 8 9 9 10 11 12 6 2 2 3 4 4 5 5 7 9 11 13 13 12 11 11
5 1 4 2 2 5 5 4 3 4 3 4 5 7 7 6 7 8 6 5 6 6 7 5 4 7 8 8 10 10 11 14 12 9 10 10 11 16 20 22 23 23 21 20 20 22 25 23 21 18 15 13 11 11 10 8 6 6 6 7 7 6 5 6 8 8 9 11 11 10 4 3 3 1 3 4 4 5 8 9 12 14 12 9 8 8
3 2 3 3 3 5 6 3 1 4 5 5 7 8 5 4 5 4 3 2 3 4 4 1 3 7 7 8 9 11 10 12 12 10 11 11 10 11 13 16 19 20 20 19 18 21 24 23 20 17 15 13 13 12 11 8 7 6 4 4 4 4 5 6 7 7 9 11 11 8 2 3 3 1 3 4 4 5 6 9 12 10 7 7 7 6
3 1 1 4 3 4 5 3 4 3 1 3 8 9 5 4 3 3 3 3 5 4 1 1 2 6 7 6 5 8 8 11 14 12 11 11 11 12 11 12 14 16 16 15 15 18 21 21 19 17 16 15 14 12 10 8 6 4 2 2 2 3 5 6 6 7 10 13 11 6 1 4 4 2 1 2 2 3 4 7 9 6 6 7 9 7
4 3 1 3 1 4 5 3 3 4 5 4 6 6 6 5 3 2 3 4 5 6 5 3 5 6 6 5 5 6 7 11 14 12 8 9 11 11 11 11 11 12 11 11 12 15 18 19 18 17 16 15 13 10 8 6 5 4 1 1 1 3 5 5 5 7 12 15 12 4 3 4 4 4 3 2 2 1 3 5 7 6 6 8 10 9
3 5 3 2 2 4 6 3 3 5 2 4 5 5 6 5 5 5 5 6 6 4 3 5 5 5 6 6 6 7 9 11 13 12 10 11 11 9 8 8 9 9 9 10 11 14 17 18 18 17 15 13 11 9 7 6 5 4 3 2 2 3 4 5 5 8 13 15 13 7 1 3 3 3 3 4 3 1 3 3 5 5 5 7 9 11
4 5 2 1 2 2 3 4 5 2 5 7 6 3 4 5 7 6 5 6 7 7 6 7 8 9 10 11 12 14 15 13 12 11 11 11 10 10 9 8 8 8 9 11 12 15 18 19 19 17 14 11 9 7 7 6 5 5 5 4 2 3 3 3 5 10 13 13 12 10 3 4 5 4 4 4 3 3 4 3 2 3 3 5 8 10
6 4 2 2 2 1 2 3 1 4 7 6 6 3 2 2 3 2 5 7 6 7 8 8 9 12 13 16 15 12 10 6 4 6 10 11 10 9 8 7 7 7 8 9 11 14 17 18 17 14 11 9 7 7 7 7 6 5 6 5 3 2 3 3 6 10 11 10 11 12 7 2 6 5 4 6 5 4 4 4 3 2 2 4 7 9
8 4 2 2 2 1 2 2 2 3 6 6 4 1 2 2 3 4 1 6 4 1 2 5 8 10 10 10 7 5 3 2 2 2 7 10 9 7 7 6 5 4 5 7 8 11 13 14 12 9 8 6 6 7 7 7 5 7 7 5 3 2 3 4 6 9 9 9 11 13 9 2 4 4 5 7 7 5 4 3 1 1 1 4 6 8
5 4 4 2 1 2 3 1 3 3 4 5 5 3 1 4 5 6 3 4 5 6 6 1 4 7 6 4 4 6 6 4 4 3 6 10 9 7 6 4 4 3 3 5 6 8 9 10 9 7 6 6 7 7 6 5 4 11 6 2 3 2 3 4 6 7 5 7 12 12 8 2 1 1 1 0 1 2 2 2 3 3 2 5 6 7
6 3 4 4 1 2 3 1 2 1 4 5 5 4 3 6 5 6 5 5 5 4 7 4 3 8 12 12 10 8 5 2 5 5 9 10 7 6 5 5 5 5 5 6 6 7 8 9 8 7 7 6 7 6 5 3 7 10 3 1 4 2 3 3 4 4 3 6 11 12 9 6 5 5 6 6 7 7 6 5 5 4 4 5 5 5
5 4 3 3 2 2 3 2 3 3 4 4 4 3 3 6 6 7 4 6 5 1 5 5 6 7 10 13 13 6 3 1 5 6 11 10 6 6 6 5 6 6 7 7 7 7 8 9 9 8 7 6 6 3 3 1 7 7 1 2 4 4 4 3 3 3 3 5 8 10 10 8 7 7 7 6 6 5 4 3 5 4 3 3 2 3
1 1 1 3 3 3 4 2 3 3 4 4 3 4 5 7 6 4 3 7 4 1 3 3 4 3 4 8 10 6 3 3 4 6 11 11 8 8 7 6 6 7 7 8 8 8 9 9 9 8 7 5 4 2 1 0 6 5 1 4 5 4 4 3 3 3 3 4 5 6 6 6 5 4 4 4 4 4 4 2 2 3 2 2 3 4
1 0 1 2 3 3 3 2 2 3 4 5 5 5 5 4 1 3 6 6 4 3 3 3 3 4 5 7 8 5 5 4 5 8 11 11 10 10 9 9 9 9 8 8 9 9 10 10 10 8 7 5 3 2 3 3 5 4 2 4 5 2 2 4 3 2 3 4 4 3 4 5 4 3 3 1 2 2 4 3 2 1 2 3 5 6
3 2 1 2 3 2 1 1 0 3 5 9 7 3 3 4 5 7 8 8 7 6 5 5 7 7 7 9 7 5 5 3 6 8 10 12 13 12 12 13 13 12 11 10 11 11 11 11 10 9 8 6 4 3 4 4 5 6 3 3 3 2 3 4 4 3 2 4 5 2 1 3 4 3 3 0 2 1 2 4 4 2 0 4 7 7
2 2 2 2 2 3 1 1 3 4 8 14 11 5 5 8 10 9 9 9 9 8 7 8 10 9 9 9 8 7 7 7 8 10 12 14 15 16 15 15 15 14 13 12 12 12 11 11 11 10 9 7 5 4 5 3 3 5 5 5 4 2 1 4 4 4 4 4 4 3 0 2 4 4 4 2 2 3 4 4 4 2 1 5 7 7
4 4 4 2 2 3 4 6 7 6 9 15 16 12 12 13 12 11 10 9 9 9 9 9 10 10 9 9 10 10 10 9 9 11 12 14 15 17 19 18 16 16 15 13 13 13 12 11 11 10 10 9 7 6 6 3 2 2 4 6 5 2 3 5 5 3 3 2 2 1 1 0 3 5 6 5 5 7 5 4 6 2 2 4 6 7
4 2 4 2 2 3 4 6 5 3 3 8 12 14 16 17 14 12 11 10 10 10 11 11 10 10 9 11 12 12 12 11 10 10 11 11 12 15 21 21 19 17 16 16 14 14 13 13 12 11 11 10 9 8 7 5 3 2 3 6 7 6 5 6 6 3 2 1 0 1 2 1 2 4 8 9 5 3 1 4 8 6 4 4 5 6
1 3 2 1 1 1 3 4 2 4 4 4 2 2 5 7 7 7 9 10 11 11 10 9 9 9 10 12 13 12 11 11 11 12 13 14 14 15 19 23 23 20 18 18 17 15 15 15 15 14 13 12 11 10 8 7 5 3 4 6 8 8 7 7 7 5 4 2 1 2 2 1 2 3 7 11 11 7 4 4 8 9 6 5 4 4
1 3 2 2 3 3 4 4 3 4 4 7 8 7 6 4 1 2 5 7 8 8 8 8 8 9 10 12 14 15 14 12 12 13 15 17 17 16 18 23 26 23 19 19 18 17 16 17 17 16 14 13 12 11 10 9 7 5 6 7 7 7 7 8 9 8 6 5 3 4 3 1 2 4 6 9 11 11 7 5 6 8 9 7 6 4
2 0 1 1 0 2 4 4 4 3 2 5 6 5 6 4 2 3 4 7 9 9 9 9 8 10 12 13 15 17 18 18 18 18 18 19 19 18 17 20 24 25 22 20 19 19 18 17 17 17 16 14 13 11 10 10 9 7 8 9 8 8 7 8 8 8 8 8 6 5 4 2 1 3 5 7 9 10 9 7 7 6 6 7 7 6
3 3 2 1 2 3 5 6 5 3 2 4 3 1 2 2 5 6 5 7 9 9 8 9 10 12 13 15 16 16 17 19 20 19 19 17 16 16 16 16 19 23 25 23 21 20 19 18 18 18 17 15 14 12 11 11 11 10 10 10 9 8 7 7 6 7 10 10 8 8 6 4 2 0 3 5 7 9 9 8 9 10 9 9 10 10
6 5 3 2 3 6 8 8 6 7 7 7 4 3 4 4 6 5 3 3 5 7 9 11 14 14 15 16 17 18 18 18 17 16 16 15 14 15 15 16 17 19 23 24 24 22 21 19 18 19 18 16 15 14 13 13 13 13 12 11 9 8 8 9 7 9 12 11 8 9 10 8 5 3 1 2 3 6 7 9 10 12 12 13 14 14
Wind_Direction
45 51 22 273 290 313 305 68 87 169 162 107 96 297 310 271 248 245 274 275 128 102 145 152 152 177 168 157 102 133 143 138 140 147 150 154 155 156 156 156 158 156 151 151 151 153 157 152 140 145 212 308 15 17 8 7 10 9 4 359 358 355 351 349 349 349 348 351 349 324 284 249 260 241 238 261 277 286 285 280 279 271 263 256 248 244
68 61 328 260 270 316 34 19 27 39 51 67 105 165 332 321 239 247 224 256 100 94 169 139 144 183 161 132 117 131 135 140 148 153 155 156 156 157 156 156 157 153 151 155 156 162 169 162 155 169 186 198 21 17 10 9 13 10 4 359 357 353 351 350 349 348 347 347 345 331 328 333 338 331 267 290 287 283 289 284 282 281 276 268 259 252
47 35 270 292 326 359 29 25 31 40 44 42 67 106 38 354 313 319 348 3 53 93 212 149 131 168 141 115 125 132 137 151 157 158 159 158 155 157 159 158 158 156 159 163 163 168 170 162 160 171 182 188 30 19 12 13 18 14 4 358 355 352 351 350 346 345 345 344 338 320 317 318 324 347 339 334 313 285 280 279 279 282 284 282 272 263
61 264 267 344 19 15 11 18 45 48 47 45 52 83 32 337 43 6 342 337 334 156 185 108 97 96 86 95 88 116 134 144 153 152 154 157 157 160 162 161 161 161 165 167 164 168 165 157 162 171 177 177 14 9 10 15 18 10 0 355 352 349 347 346 343 343 344 341 327 293 286 283 272 313 309 306 302 282 274 273 274 277 280 283 281 275
140 264 312 16 27 28 31 20 40 66 46 37 59 85 95 339 47 108 339 338 337 347 98 90 77 67 130 131 99 68 111 123 138 142 143 153 157 161 163 163 165 168 170 167 165 167 162 157 166 170 169 177 323 357 8 12 7 359 355 350 347 344 341 341 341 341 343 341 326 299 275 262 250 259 276 281 285 281 274 273 276 279 281 282 282 278
12 346 20 33 23 29 56 35 36 93 61 16 43 82 108 79 33 43 37 32 22 349 324 101 98 264 278 117 108 71 88 97 126 139 142 153 158 162 164 166 172 176 173 167 167 169 165 165 170 169 170 179 329 357 8 11 2 354 352 349 345 343 340 340 341 341 342 342 339 336 327 308 296 297 310 324 325 314 302 298 295 293 294 293 289 284
354 18 38 50 45 38 44 35 28 101 85 20 279 292 62 68 26 8 44 60 81 280 289 94 130 202 321 11 29 70 92 83 108 146 159 165 165 167 169 173 175 173 171 171 171 170 169 174 174 169 171 181 337 355 11 13 1 356 354 352 347 344 341 343 345 343 345 348 345 343 343 338 331 333 351 354 343 324 312 319 314 304 309 309 302 297
326 21 34 47 54 49 35 16 328 75 100 211 262 272 38 43 334 319 24 68 176 248 319 12 106 126 173 277 279 113 114 120 166 177 184 182 177 177 181 183 176 171 172 172 171 172 175 179 180 178 181 223 325 351 15 10 359 356 355 353 349 345 344 347 349 348 353 354 349 346 342 334 328 329 339 333 319 307 302 322 322 310 314 316 310 305
296 35 59 72 57 45 29 286 280 19 96 221 250 254 293 265 250 292 359 25 243 21 326 315 56 97 264 263 180 139 133 186 210 198 202 202 196 194 196 192 181 174 173 171 170 176 178 179 184 190 199 230 314 353 5 360 355 353 353 354 349 346 349 353 355 359 2 357 349 345 340 333 328 319 318 304 298 300 296 317 330 319 318 325 325 318
302 77 111 107 83 39 285 281 338 36 351 248 273 323 326 347 279 276 289 247 22 50 265 276 44 107 265 267 177 177 193 218 224 204 209 212 205 203 201 193 185 178 177 175 174 180 183 185 192 198 198 206 312 354 355 353 354 353 354 354 348 349 355 360 5 9 7 1 349 338 334 331 327 318 312 284 275 286 282 305 340 335 327 347 353 344
331 60 74 84 88 152 303 353 28 32 351 335 33 12 351 1 5 32 69 95 61 15 256 262 277 112 140 256 200 197 213 201 196 189 208 209 200 199 197 191 187 184 184 182 178 182 185 189 192 190 190 201 318 338 348 353 354 354 354 353 350 353 359 5 9 9 5 2 353 339 335 335 330 326 323 298 280 283 278 303 346 350 335 357 7 0
354 30 33 40 44 43 38 17 12 20 28 47 53 30 12 354 1 21 4 39 80 263 262 265 340 87 112 239 221 222 243 194 171 181 191 196 196 194 193 192 191 190 190 186 180 180 183 185 184 185 196 228 314 333 351 354 350 351 354 355 354 356 359 1 3 0 358 358 354 344 338 338 337 335 330 314 296 293 288 311 344 351 338 349 8 10
347 346 348 23 30 40 58 24 351 3 28 41 49 59 48 358 359 16 338 7 104 243 256 215 128 80 144 250 209 204 251 207 187 192 183 186 193 192 192 193 193 195 194 190 187 185 185 187 187 188 199 234 304 336 351 349 343 347 356 359 358 358 359 358 357 355 353 353 352 346 338 338 339 336 332 322 306 294 289 304 330 345 346 344 3 15
340 326 346 3 359 28 70 88 4 334 8 22 26 76 86 75 40 342 290 342 312 265 280 267 119 95 298 296 208 178 192 184 192 197 188 189 196 195 195 195 198 201 199 195 193 188 189 192 193 197 208 234 289 333 345 338 333 347 359 360 356 358 0 357 354 353 352 350 350 347 340 339 339 333 331 324 315 303 286 291 311 331 345 346 356 15
41 321 318 338 320 4 55 120 158 172 56 341 200 113 101 125 120 253 240 201 252 271 300 331 66 135 193 279 277 134 114 133 165 181 182 189 199 198 194 196 201 204 202 200 194 189 193 198 198 205 218 239 292 328 333 323 326 349 357 352 351 354 353 350 350 351 353 353 351 350 345 340 340 336 334 326 318 312 291 286 296 308 327 341 351 4
59 271 268 313 42 96 63 33 116 85 50 289 88 80 23 182 151 231 223 193 208 294 328 338 13 185 169 337 359 90 99 107 136 155 164 177 191 193 193 200 203 202 202 201 196 195 197 199 203 213 226 250 297 321 318 310 318 341 344 344 348 352 350 349 350 353 358 358 351 351 353 346 343 339 338 340 332 323 304 288 286 290 306 327 339 343
39 290 283 349 28 57 83 93 54 68 129 288 41 44 266 193 140 141 298 305 66 76 305 318 107 77 52 6 332 43 94 103 125 147 158 170 182 187 196 206 205 201 203 204 204 202 198 199 208 217 228 250 291 316 311 293 303 330 338 344 349 351 351 353 355 358 2 360 349 348 354 350 347 346 343 350 350 340 327 295 277 277 288 308 322 323
107 293 303 17 34 356 41 77 50 40 85 80 12 277 273 37 90 105 34 351 30 59 289 338 116 163 69 30 299 338 98 166 181 170 167 170 178 188 198 205 207 205 205 208 206 200 198 201 208 214 221 240 287 310 299 259 294 323 335 343 347 349 351 353 359 4 3 0 354 349 353 351 353 355 350 348 347 337 333 314 275 264 269 279 289 300
96 37 303 355 34 336 10 56 26 350 25 76 243 273 66 57 356 15 56 1 5 4 294 354 11 281 200 186 201 226 218 208 217 216 192 186 188 195 201 203 207 207 205 207 202 195 196 201 206 211 213 211 247 258 231 254 296 317 330 339 341 346 350 351 358 5 2 359 357 352 354 355 354 357 354 350 349 341 336 338 311 261 257 264 269 278
75 94 280 313 343 340 5 44 23 324 347 30 18 0 47 124 172 266 40 146 152 240 208 307 350 305 235 210 188 209 218 201 201 215 212 207 203 202 202 201 204 206 204 202 196 193 197 199 201 204 193 185 208 227 248 269 296 317 330 338 340 346 350 351 357 4 1 359 0 358 357 357 355 355 351 348 345 341 340 346 356 338 280 266 266 267
59 79 276 307 334 17 21 357 256 287 311 14 25 8 347 354 79 34 350 105 130 141 158 155 298 271 252 222 193 216 220 193 195 206 213 214 210 204 202 201 203 203 200 196 193 194 197 197 198 196 180 191 207 228 247 260 304 329 334 341 345 351 356 355 360 6 1 360 2 0 356 359 359 344 338 347 351 347 345 349 3 7 359 333 308 277
77 87 87 316 346 16 248 242 247 248 209 148 106 101 118 71 73 67 332 317 53 122 170 166 228 268 260 215 190 211 214 197 196 199 210 217 213 207 205 201 196 193 191 192 194 194 194 196 196 187 182 197 209 218 228 253 333 330 334 346 354 360 0 359 4 7 2 1 5 1 353 354 355 333 336 352 356 350 353 359 6 8 13 1 342 327
149 101 77 316 292 242 252 266 287 269 197 126 105 113 124 116 98 111 214 286 346 351 302 121 159 269 262 250 225 219 217 203 199 199 208 216 215 213 204 195 189 188 189 191 192 192 196 198 192 182 190 201 204 207 229 292 320 320 334 355 2 0 358 358 4 7 0 359 3 359 350 349 354 337 343 357 7 39 44 47 38 33 29 5 349 346
63 82 61 316 298 296 296 316 338 349 52 63 350 25 96 99 121 142 172 183 5 323 353 63 319 269 279 320 319 295 304 237 203 200 205 211 216 214 197 189 188 189 189 190 191 195 200 198 191 195 206 206 201 212 252 276 298 314 336 352 351 352 357 359 3 3 354 353 358 358 351 351 358 342 345 11 64 81 67 45 36 49 34 352 350 356
25 83 78 43 353 346 340 344 347 351 24 38 297 327 47 80 88 99 83 78 72 266 147 125 259 254 275 331 355 354 333 293 221 187 188 198 202 196 185 182 184 185 186 190 195 201 202 197 202 210 211 208 210 233 258 272 290 301 320 334 342 351 357 1 4 357 345 347 356 360 355 345 346 347 357 49 73 74 68 15 13 26 13 345 345 345
114 142 107 102 102 333 316 303 294 297 327 319 295 328 355 64 73 69 57 71 193 257 142 149 226 262 294 321 351 357 329 287 227 161 176 188 181 177 177 179 184 188 193 199 202 204 201 201 209 212 211 214 225 245 257 266 276 282 302 324 346 355 350 358 4 349 337 341 352 359 355 331 340 9 66 75 65 53 47 29 7 1 345 335 337 335
89 89 108 133 157 189 212 238 232 170 266 283 280 306 319 92 106 109 100 132 193 208 334 223 209 273 304 304 317 330 327 303 269 162 177 182 174 175 180 185 192 198 204 207 207 207 205 206 212 214 216 223 232 243 250 255 262 272 296 315 336 341 340 352 354 337 333 339 350 359 354 316 344 33 84 74 54 38 29 20 2 352 336 325 324 321
81 31 40 145 174 204 205 228 225 158 198 236 239 280 289 281 109 118 149 215 171 103 302 248 194 243 283 279 280 285 298 303 276 153 170 181 181 184 188 192 199 204 207 208 210 212 210 210 214 215 218 225 230 237 239 244 255 271 297 309 318 325 333 347 342 331 334 338 348 360 358 285 342 37 89 72 43 26 8 358 352 346 334 325 324 320
102 161 235 160 224 255 224 230 220 176 219 236 218 246 262 242 180 185 215 207 159 159 245 234 201 239 266 279 272 252 246 240 208 171 177 187 188 193 195 197 201 204 206 209 214 217 214 213 215 216 218 222 227 232 231 235 250 265 288 304 314 325 340 349 333 327 332 338 348 360 359 251 293 39 98 80 48 22 358 351 341 333 327 325 329 330
100 200 233 152 14 307 287 265 218 194 235 265 244 239 235 223 212 211 230 211 175 205 234 224 248 263 257 258 264 266 248 228 214 198 197 201 202 203 203 204 207 207 208 213 218 219 216 214 215 215 216 220 224 224 222 228 242 254 280 309 327 349 3 341 324 324 330 337 348 360 353 246 245 88 97 76 49 11 346 333 322 324 331 334 339 352
81 223 230 104 48 310 297 309 259 213 224 246 266 267 257 248 237 220 232 210 188 250 266 228 272 280 264 243 263 289 272 235 230 228 222 227 225 212 208 208 208 208 211 217 222 219 215 213 213 214 216 217 216 215 218 227 237 253 294 334 1 16 359 328 322 327 334 343 352 358 339 233 225 129 82 71 45 356 326 312 314 330 355 355 356 20
93 200 318 71 48 285 277 310 318 306 312 288 286 281 258 226 219 213 219 201 187 200 224 23 294 269 264 262 287 304 276 239 236 237 237 237 222 212 217 213 206 207 211 217 220 217 213 212 211 212 212 211 210 212 220 227 233 255 309 26 32 347 325 321 326 333 344 357 357 348 198 200 225 225 112 80 41 356 338 327 336 9 35 12 14 28
134 131 135 104 87 274 276 300 321 14 26 328 279 250 213 207 219 243 264 241 200 160 142 196 235 232 252 294 322 308 267 241 239 237 229 219 206 211 230 227 214 215 220 225 225 218 212 210 209 208 208 207 207 212 221 227 241 263 257 136 317 296 295 309 326 341 357 7 4 346 191 195 218 210 206 248 269 3 17 359 4 34 45 28 28 27
139 130 159 147 134 266 280 322 27 40 20 266 245 186 171 185 194 207 238 236 213 188 183 228 247 254 263 267 261 265 268 263 261 251 225 206 198 198 209 214 214 221 227 228 221 211 208 205 201 201 201 201 206 217 228 236 252 264 235 218 262 262 272 305 338 359 6 12 13 10 239 225 228 197 214 249 249 292 346 1 20 21 25 36 31 21
144 130 145 135 132 237 293 25 37 344 236 243 265 242 190 173 169 188 248 255 224 228 250 263 268 262 259 261 262 272 284 287 282 258 223 207 202 195 192 200 210 217 218 213 205 201 203 201 196 196 198 205 219 236 243 249 268 264 232 199 197 241 274 325 4 11 8 7 10 13 10 241 242 226 215 228 233 278 296 296 339 346 3 33 22 17
150 141 143 152 160 263 15 64 98 253 257 278 303 279 193 137 133 159 295 287 247 226 229 238 257 260 268 282 288 291 295 291 273 224 201 195 203 211 209 203 199 203 208 208 205 202 201 201 199 201 207 217 239 255 254 267 277 239 199 166 161 251 318 359 9 4 1 360 1 7 11 258 237 237 233 242 250 270 284 283 281 293 7 28 17 15
145 137 142 158 201 173 130 209 249 306 316 316 314 254 167 163 171 157 242 277 275 313 218 228 261 273 274 282 297 324 337 356 9 243 197 189 198 209 210 202 193 196 198 199 204 203 201 201 204 213 225 240 270 275 277 295 265 197 168 143 166 253 321 350 353 347 344 352 2 6 7 337 227 234 257 264 262 261 272 284 234 174 57 25 16 9
131 150 161 153 223 124 104 301 320 4 312 270 261 272 58 107 149 139 106 283 292 11 27 350 279 309 320 328 343 355 5 11 341 285 185 176 182 185 189 204 224 244 235 216 214 213 209 209 213 228 243 271 292 288 309 328 203 178 162 141 176 240 319 340 352 345 334 359 14 16 14 6 223 184 81 76 151 134 99 99 136 137 70 24 13 7
60 58 113 110 102 115 113 189 227 233 250 241 251 288 29 77 106 96 51 302 274 1 21 36 45 11 3 358 351 1 35 21 287 231 168 162 182 199 209 228 238 249 256 254 252 250 238 229 232 242 253 287 300 295 332 359 168 166 152 188 190 244 295 300 340 346 3 30 32 36 50 77 96 97 96 98 107 106 91 100 125 113 71 48 32 32
54 34 68 116 195 191 149 185 230 232 244 246 248 259 63 67 67 64 24 277 254 343 8 23 42 27 13 360 349 357 104 183 272 219 178 175 199 222 234 246 245 243 247 246 248 254 250 241 243 250 258 288 302 297 344 25 163 155 97 197 205 283 292 251 292 341 39 55 48 48 58 78 91 96 96 92 94 90 73 101 136 134 109 91 77 67
71 50 120 157 187 190 173 211 263 251 241 244 219 156 96 64 57 76 227 238 222 289 340 9 20 354 339 335 329 318 251 266 276 210 195 197 212 229 238 246 249 252 256 254 250 253 254 247 246 251 258 284 299 288 327 194 167 165 240 230 232 292 300 252 284 346 40 50 52 50 47 53 60 67 76 80 86 71 36 25 154 171 178 156 136 126
246 94 161 163 169 181 176 193 273 282 239 202 176 143 114 90 100 216 214 205 194 233 287 316 288 266 282 306 316 326 310 274 217 200 210 217 227 235 233 230 234 238 241 245 248 252 253 247 242 242 250 274 289 277 298 267 192 184 276 235 218 269 292 247 261 342 28 19 21 45 53 42 26 13 13 38 140 86 24 342 297 223 184 166 147 135
196 168 231 218 188 168 96 107 320 296 231 188 166 127 134 170 224 224 200 193 206 227 257 282 272 262 280 298 306 328 333 268 209 215 231 234 237 241 238 235 238 241 241 243 247 249 249 249 246 245 254 269 265 258 292 280 208 197 245 245 222 287 301 238 229 258 314 348 357 11 67 39 20 6 356 305 171 133 335 287 280 316 94 156 148 143
209 175 213 249 201 145 108 207 208 221 205 188 181 198 233 240 250 236 208 207 220 227 238 259 266 262 269 283 290 301 309 292 265 261 261 256 249 243 239 238 239 240 244 248 250 250 248 248 248 248 255 256 241 245 278 282 195 191 224 248 253 271 219 195 214 260 278 296 328 345 54 23 25 25 7 327 257 300 306 256 246 309 67 157 157 154
231 202 178 190 209 176 186 221 226 223 208 200 205 231 262 268 259 237 227 236 242 240 242 250 259 263 266 274 283 289 291 289 284 277 277 280 267 246 237 239 241 243 246 248 249 249 247 246 246 250 253 245 234 244 254 245 212 197 222 243 248 217 184 204 229 274 288 266 293 315 192 9 25 23 6 339 296 298 302 231 214 204 111 145 154 148
235 187 140 147 281 271 248 257 268 282 228 214 225 248 269 278 266 241 237 254 266 267 263 257 258 268 274 277 282 286 286 286 289 282 273 283 284 258 243 241 242 244 246 243 243 245 245 242 241 246 249 241 233 239 240 229 235 251 239 239 237 234 235 226 221 246 284 269 256 179 180 132 46 28 18 16 3 333 325 192 197 188 143 133 137 133
342 60 72 253 287 282 271 283 349 54 76 107 135 243 281 296 284 252 247 264 273 274 272 269 270 278 285 283 281 284 284 285 290 285 273 275 282 274 256 247 241 241 245 246 245 243 242 240 240 242 244 239 233 234 233 225 227 251 259 239 231 240 250 231 217 232 249 232 186 166 176 120 41 24 17 23 30 36 64 150 185 192 185 166 148 141
15 44 340 246 182 188 247 250 169 129 118 111 98 74 61 63 44 254 257 266 268 265 267 272 275 278 285 288 282 276 274 276 281 284 281 278 276 275 268 255 244 241 248 251 245 240 240 242 243 243 241 237 233 231 229 223 222 246 262 244 236 249 248 226 224 232 220 197 176 156 159 165 28 34 24 22 27 34 56 106 160 192 205 207 201 199
186 113 242 206 186 300 288 250 188 180 153 126 111 61 44 54 9 313 268 247 248 253 257 262 272 281 287 293 290 279 273 275 280 283 286 285 279 275 272 261 247 242 247 249 244 240 241 243 243 242 242 239 234 230 227 223 222 240 253 244 246 259 243 216 224 228 209 201 198 176 164 180 43 43 33 26 23 27 47 83 113 146 178 190 188 182
220 226 201 108 23 309 268 242 218 217 226 189 170 355 359 0 339 328 298 260 259 266 275 283 292 296 292 292 295 292 284 284 287 285 284 286 284 279 276 269 256 247 246 246 244 241 241 242 242 242 243 241 235 230 229 225 223 237 245 242 251 263 237 209 216 215 200 204 213 204 197 209 218 25 26 30 27 26 41 74 96 106 114 126 135 135
219 217 196 168 218 247 268 265 229 201 206 210 214 279 296 304 318 319 313 306 302 306 311 308 305 304 299 294 295 297 294 294 291 282 279 283 285 282 278 272 262 253 246 243 241 239 238 238 237 238 242 241 236 234 231 224 225 236 241 240 255 261 225 195 193 196 193 200 216 215 213 221 221 219 266 5 30 32 46 71 92 101 106 111 117 119